Location: Cheyres
(46.8153°N, 6.7877°E)
Time: 10:59:09
(UTC+00:00)

Gbstr 26 Del rocket - Pass Details

Date: 24 September 2021
Orbit: 492 x 1263 km, 51.8° (Epoch: 18 October)

Event Time Altitude Azimuth Distance (km) Brightness Sun altitude
Rises 19:34:43 0° 205° (SSW) 3,856 7.1 -22.2°
Reaches altitude 10° 19:37:29 10° 197° (SSW) 2,997 6.5 -22.6°
Enters shadow 19:43:22 37° 147° (SSE) 1,786 4.9 -23.5°
